Location: UMBC
(39.2555°N, 76.7093°W)
Time: 13:54:57
(UTC+02:00)

Amateur Radio Satellites - All Passes

Search period start: 25 October 2014 13:24
Search period end: 26 October 2014 12:24
Location: UMBC, 39.2555°N, 76.7093°W

Satellite Date Start Highest point End Downlink Frequencies (MHz)
Time Altitude Azimuth
SO-67 25 Oct 13:25:52 13:28:18 18° 94° (E) 13:30:43 435.3500 MHz FM
PANSAT 25 Oct 13:47:33 13:49:11 12° 168° (SSE) 13:50:50 not established
STRAND 1 25 Oct 13:52:22 13:57:03 36° 262° (W) 14:01:46 ?
Hamsat 25 Oct 13:59:17 14:02:21 20° 292° (WNW) 14:05:25 145.90 MHz
JAS-2 25 Oct 14:42:22 14:47:10 18° 303° (WNW) 14:52:01 435.800 - 435.900 CW/SSB, 435.910 FM
RS-15 25 Oct 14:52:00 15:02:41 53° 249° (WSW) 15:13:51 29.354 - 29.394 USB, Beacon 29.352 USB
Saudisat 1A 25 Oct 14:52:09 14:55:56 28° 311° (NW) 14:59:45 436.775 MHz
SO-67 25 Oct 14:58:29 15:01:13 22° 289° (WNW) 15:03:56 435.3500 MHz FM
MaSat-1 25 Oct 15:03:45 15:05:40 18° 57° (ENE) 15:07:29 437.345 MHz
PANSAT 25 Oct 15:26:13 15:28:39 16° 181° (S) 15:31:06 not established
HO-68 25 Oct 15:29:46 15:36:24 38° 98° (E) 15:42:58 435.675 MHz FM
UKube-1 25 Oct 15:36:18 15:37:20 11° 91° (E) 15:38:22 145.840 MHz, 145.915 MHz
Oscar 11 25 Oct 16:15:03 16:18:49 29° 96° (E) 16:22:33 145.825 FM, Beacon 2401.500 USB
FUNcube-1 25 Oct 16:16:08 16:17:26 11° 90° (E) 16:18:43 145.950 - 145.970 MHz USB
KITSAT 1 25 Oct 17:03:30 17:09:08 21° 103° (ESE) 17:14:47 435.175 FM
ZACube-1 25 Oct 17:05:26 17:09:30 44° 99° (E) 17:13:28 437.345 MHz
PANSAT 25 Oct 17:06:50 17:08:06 11° 194° (SSW) 17:09:23 not established
UKube-1 25 Oct 17:09:35 17:13:54 62° 286° (WNW) 17:18:12 145.840 MHz, 145.915 MHz
HO-68 25 Oct 17:17:28 17:24:02 40° 295° (WNW) 17:30:35 435.675 MHz FM
FUNcube-1 25 Oct 17:50:02 17:54:11 54° 286° (WNW) 17:58:14 145.950 - 145.970 MHz USB
Oscar 11 25 Oct 17:51:27 17:54:50 23° 292° (WNW) 17:58:12 145.825 FM, Beacon 2401.500 USB
ISS 25 Oct 18:21:41 18:24:46 36° 135° (SE) 18:27:51 145.800 FM
Sapphire 25 Oct 18:31:24 18:36:02 28° 51° (NE) 18:40:39 437.095 MHz 1200 baud AX-25 AFSK
Oscar 19 25 Oct 18:34:20 18:37:26 16° 63° (ENE) 18:40:32 437.125 CW, 437.150 USB
JAS-1B 25 Oct 18:40:55 18:44:44 18° 62° (ENE) 18:48:28 435.800 - 435.900 CW/SSB
Oscar 10/S400 25 Oct 18:42:30 19:01:41 31° 151° (SSE) 19:18:27 145.825 - 145.975 CW/USB, Beacon 145.810 USB
ZACube-1 25 Oct 18:43:04 18:45:30 15° 295° (WNW) 18:47:54 437.345 MHz
PCSat 25 Oct 18:53:34 18:58:46 44° 56° (NE) 19:03:54 145.825 MHz
SO-50 25 Oct 18:54:03 18:58:25 56° 117° (ESE) 19:02:55 436.795 FM
KITSAT 1 25 Oct 18:55:33 19:03:38 78° 301° (WNW) 19:11:46 435.175 FM
AO-27 25 Oct 18:55:50 18:56:51 11° 58° (ENE) 18:57:53 436.795 MHz FM
AO-Echo 25 Oct 19:10:22 19:13:34 18° 63° (ENE) 19:16:50 ?
Oscar 16 25 Oct 19:18:05 19:22:56 43° 70° (ENE) 19:27:47 437.025 USB, Beacon 2401.1428
Uribyol 2 25 Oct 19:39:14 19:43:41 29° 67° (ENE) 19:48:09 436.500 FM
ITAMSAT 1 25 Oct 19:45:19 19:49:51 31° 68° (ENE) 19:54:24 435.822 SSB
ISS 25 Oct 19:58:36 20:01:30 27° 332° (NNW) 20:04:25 145.800 FM
Gurwin Techsat 1B 25 Oct 20:08:59 20:13:23 27° 67° (ENE) 20:17:49 435.225 FM
Oscar 19 25 Oct 20:11:09 20:16:15 61° 259° (W) 20:21:21 437.125 CW, 437.150 USB
Sapphire 25 Oct 20:14:29 20:19:36 42° 249° (WSW) 20:24:40 437.095 MHz 1200 baud AX-25 AFSK
UOSAT-12 25 Oct 20:14:43 20:18:51 34° 114° (ESE) 20:23:05 437.025 FM, 437.400 FM
TMSAT-1 25 Oct 20:19:57 20:24:14 26° 66° (ENE) 20:28:31 436.925 FM
AO-7 25 Oct 20:28:24 20:33:12 17° 50° (NE) 20:38:00 29.400 - 29.500 MHz
JAS-1B 25 Oct 20:29:05 20:35:00 57° 259° (WSW) 20:40:35 435.800 - 435.900 CW/SSB
AO-27 25 Oct 20:30:18 20:35:30 84° 75° (ENE) 20:40:46 436.795 MHz FM
SO-50 25 Oct 20:36:07 20:39:20 19° 316° (NW) 20:42:37 436.795 FM
PCSat 25 Oct 20:37:33 20:41:53 25° 253° (WSW) 20:46:11 145.825 MHz
AO-Echo 25 Oct 20:47:06 20:51:51 53° 260° (W) 20:56:47 ?
KITSAT 1 25 Oct 20:54:38 21:00:25 21° 323° (NW) 21:06:13 435.175 FM
Oscar 16 25 Oct 20:58:31 21:02:26 22° 266° (W) 21:06:21 437.025 USB, Beacon 2401.1428
Uribyol 2 25 Oct 21:18:22 21:23:02 33° 263° (W) 21:27:44 436.500 FM
ITAMSAT 1 25 Oct 21:24:42 21:29:16 31° 264° (W) 21:33:52 435.822 SSB
ISS 25 Oct 21:38:09 21:39:05 11° 352° (N) 21:40:01 145.800 FM
Saudisat 1A 25 Oct 21:40:10 21:43:34 21° 46° (NE) 21:46:56 436.775 MHz
Gurwin Techsat 1B 25 Oct 21:48:20 21:53:10 36° 263° (W) 21:58:04 435.225 FM
UOSAT-12 25 Oct 21:54:59 21:59:01 28° 311° (NW) 22:03:07 437.025 FM, 437.400 FM
TMSAT-1 25 Oct 21:59:00 22:03:55 39° 262° (W) 22:08:52 436.925 FM
AO-40 25 Oct 22:04:02 04:12:33 43° 184° (S) 10:01:23 Beacon 2401.320
AO-27 25 Oct 22:14:43 22:15:38 10° 271° (W) 22:16:32 436.795 MHz FM
AO-7 25 Oct 22:16:24 22:24:38 77° 70° (ENE) 22:32:55 29.400 - 29.500 MHz
Uosat F 25 Oct 22:32:20 22:37:18 67° 74° (ENE) 22:42:19 435.120 FM
JAS-2 25 Oct 23:06:49 23:12:17 39° 66° (ENE) 23:18:25 435.800 - 435.900 CW/SSB, 435.910 FM
ISS 25 Oct 23:15:32 23:16:59 12° 13° (NNE) 23:18:25 145.800 FM
Hamsat 25 Oct 23:15:43 23:18:51 21° 68° (ENE) 23:22:00 145.90 MHz
Saudisat 1A 25 Oct 23:19:07 23:23:19 44° 244° (WSW) 23:27:31 436.775 MHz
AO-7 26 Oct 00:12:14 00:18:08 21° 267° (W) 00:24:06 29.400 - 29.500 MHz
Uosat F 26 Oct 00:14:17 00:16:32 13° 269° (W) 00:18:48 435.120 FM
OPAL 26 Oct 00:17:46 00:22:41 61° 103° (ESE) 00:27:33 ?
Hamsat 26 Oct 00:50:54 00:54:37 30° 263° (W) 00:58:20 145.90 MHz
ISS 26 Oct 00:51:16 00:54:25 38° 32° (NNE) 00:57:33 145.800 FM
JAS-2 26 Oct 00:52:11 00:57:24 32° 267° (W) 01:03:15 435.800 - 435.900 CW/SSB, 435.910 FM
KITSAT 1 26 Oct 00:56:21 00:59:57 13° 26° (NNE) 01:03:32 435.175 FM
SO-67 26 Oct 01:29:04 01:32:29 87° 258° (WSW) 01:35:57 435.3500 MHz FM
HO-68 26 Oct 01:58:02 02:03:46 27° 60° (ENE) 02:09:31 435.675 MHz FM
OPAL 26 Oct 01:58:07 02:01:03 16° 300° (WNW) 02:03:58 ?
STRAND 1 26 Oct 02:03:27 02:08:39 84° 104° (ESE) 02:13:47 ?
ISS 26 Oct 02:28:16 02:30:57 23° 228° (SW) 02:33:38 145.800 FM
KITSAT 1 26 Oct 02:50:08 02:57:48 44° 51° (NE) 02:05:25 435.175 FM
RS-15 26 Oct 02:04:03 02:12:52 29° 104° (ESE) 02:21:33 29.354 - 29.394 USB, Beacon 29.352 USB
Oscar 11 26 Oct 02:09:34 02:12:49 21° 68° (ENE) 02:16:05 145.825 FM, Beacon 2401.500 USB
FUNcube-1 26 Oct 02:13:02 02:13:26 10° 62° (ENE) 02:13:49 145.950 - 145.970 MHz USB
SO-50 26 Oct 02:26:30 02:31:05 40° 52° (NE) 02:35:40 436.795 FM
HO-68 26 Oct 02:43:57 02:50:58 59° 258° (WSW) 02:58:04 435.675 MHz FM
STRAND 1 26 Oct 02:45:08 02:47:05 12° 300° (WNW) 02:49:02 ?
ZACube-1 26 Oct 03:00:37 03:04:43 34° 71° (ENE) 03:08:47 437.345 MHz
UKube-1 26 Oct 03:03:38 03:07:58 83° 257° (WSW) 03:12:22 145.840 MHz, 145.915 MHz
MaSat-1 26 Oct 03:40:38 03:42:05 12° 105° (ESE) 03:43:30 437.345 MHz
FUNcube-1 26 Oct 03:44:33 03:49:08 81° 258° (WSW) 03:53:41 145.950 - 145.970 MHz USB
Oscar 11 26 Oct 03:44:55 03:48:48 32° 263° (W) 03:52:41 145.825 FM, Beacon 2401.500 USB
UOSAT-12 26 Oct 03:45:17 03:49:11 25° 47° (NE) 03:53:01 437.025 FM, 437.400 FM
KITSAT 1 26 Oct 03:45:41 03:53:09 43° 250° (WSW) 04:00:35 435.175 FM
SO-50 26 Oct 04:07:31 04:11:26 25° 248° (WSW) 04:15:21 436.795 FM
RS-15 26 Oct 04:13:10 04:24:09 73° 304° (NW) 04:35:07 29.354 - 29.394 USB, Beacon 29.352 USB
ZACube-1 26 Oct 04:37:34 04:41:08 22° 266° (W) 04:44:41 437.345 MHz
MaSat-1 26 Oct 05:13:19 05:17:22 52° 297° (WNW) 05:21:02 437.345 MHz
UOSAT-12 26 Oct 05:25:03 05:29:27 40° 245° (WSW) 05:33:46 437.025 FM, 437.400 FM
RS-15 26 Oct 06:30:19 06:38:49 25° 332° (NNW) 06:47:25 29.354 - 29.394 USB, Beacon 29.352 USB
Oscar 16 26 Oct 06:32:04 06:35:09 16° 92° (E) 06:38:14 437.025 USB, Beacon 2401.1428
Oscar 10/S400 26 Oct 06:46:49 07:44:19 19° 245° (WSW) 09:46:06 145.825 - 145.975 CW/USB, Beacon 145.810 USB
Uribyol 2 26 Oct 06:56:08 06:56:39 10° 89° (E) 06:57:10 436.500 FM
ITAMSAT 1 26 Oct 07:01:29 07:03:03 11° 89° (E) 07:04:36 435.822 SSB
JAS-1B 26 Oct 07:11:55 07:18:25 41° 100° (E) 07:26:02 435.800 - 435.900 CW/SSB
Oscar 19 26 Oct 07:23:49 07:28:49 51° 100° (E) 07:33:46 437.125 CW, 437.150 USB
Gurwin Techsat 1B 26 Oct 07:28:30 07:29:48 11° 89° (E) 07:31:05 435.225 FM
AO-27 26 Oct 07:44:50 07:49:31 33° 97° (E) 07:54:10 436.795 MHz FM
AO-Echo 26 Oct 07:55:02 08:00:16 56° 100° (E) 08:05:28 ?
Oscar 16 26 Oct 08:09:50 08:14:51 56° 287° (WNW) 08:19:50 437.025 USB, Beacon 2401.1428
Sapphire 26 Oct 08:12:29 08:17:03 29° 108° (ESE) 08:21:39 437.095 MHz 1200 baud AX-25 AFSK
Uribyol 2 26 Oct 08:31:30 08:36:44 85° 285° (WNW) 08:41:55 436.500 FM
PCSat 26 Oct 08:34:07 08:39:18 49° 112° (ESE) 08:44:31 145.825 MHz
ITAMSAT 1 26 Oct 08:37:52 08:43:06 79° 285° (WNW) 08:48:18 435.822 SSB
RS-15 26 Oct 08:49:59 08:56:51 18° 9° (N) 09:03:50 29.354 - 29.394 USB, Beacon 29.352 USB
OPAL 26 Oct 08:56:27 08:58:31 13° 58° (ENE) 09:00:36 ?
JAS-1B 26 Oct 09:02:51 09:08:55 37° 292° (WNW) 09:16:01 435.800 - 435.900 CW/SSB
Oscar 19 26 Oct 09:04:14 09:07:44 19° 296° (WNW) 09:11:14 437.125 CW, 437.150 USB
Gurwin Techsat 1B 26 Oct 09:05:02 09:10:22 83° 285° (WNW) 09:15:40 435.225 FM
TMSAT-1 26 Oct 09:15:25 09:20:46 89° 284° (WNW) 09:26:04 436.925 FM
AO-7 26 Oct 09:20:03 09:26:46 26° 95° (E) 09:33:27 29.400 - 29.500 MHz
AO-27 26 Oct 09:24:26 09:28:55 29° 293° (WNW) 09:33:22 436.795 MHz FM
AO-Echo 26 Oct 09:34:55 09:38:33 19° 296° (WNW) 09:42:12 ?
Uosat F 26 Oct 09:41:54 09:45:49 22° 94° (E) 09:49:42 435.120 FM
Sapphire 26 Oct 09:55:17 10:00:18 38° 305° (NW) 10:05:22 437.095 MHz 1200 baud AX-25 AFSK
Uribyol 2 26 Oct 10:14:17 10:15:22 11° 302° (WNW) 10:16:26 436.500 FM
PCSat 26 Oct 10:18:35 10:22:58 25° 310° (NW) 10:27:23 145.825 MHz
OPAL 26 Oct 10:31:33 10:36:42 84° 254° (WSW) 10:41:49 ?
STRAND 1 26 Oct 10:42:32 10:44:55 13° 61° (ENE) 10:47:18 ?
Gurwin Techsat 1B 26 Oct 10:48:20 10:49:28 11° 302° (WNW) 10:50:35 435.225 FM
TMSAT-1 26 Oct 10:58:09 10:59:52 12° 301° (WNW) 11:01:34 436.925 FM
JAS-2 26 Oct 11:00:50 11:08:16 44° 97° (E) 11:15:34 435.800 - 435.900 CW/SSB, 435.910 FM
RS-15 26 Oct 11:03:32 11:13:43 39° 42° (NE) 11:24:14 29.354 - 29.394 USB, Beacon 29.352 USB
AO-7 26 Oct 11:11:49 11:20:02 65° 292° (WNW) 11:28:14 29.400 - 29.500 MHz
Uosat F 26 Oct 11:20:00 11:24:42 40° 290° (WNW) 11:29:23 435.120 FM
Hamsat 26 Oct 11:36:55 11:40:59 47° 99° (E) 11:45:03 145.90 MHz
